Time,TemperatureF,DewpointF,PressureIn,WindDirection,WindDirectionDegrees,WindSpeedMPH,WindSpeedGustMPH,Humidity,HourlyPrecipIn,Conditions,Clouds,dailyrainin,SoftwareType,DateUTC
2013-10-19 00:01:00,53.0,44.2,29.95,SSE,162,1.0,7.0,72,0.00,,,0.01,HR-IXPWINDi_r2_v1.2.,2013-10-19 04:01:00,
2013-10-19 00:06:00,52.7,44.2,29.95,South,181,2.0,5.0,73,0.00,,,0.00,HR-IXPWINDi_r2_v1.2.,2013-10-19 04:06:00,
2013-10-19 00:11:00,52.6,44.1,29.95,SE,143,1.0,7.0,73,0.00,,,0.00,HR-IXPWINDi_r2_v1.2.,2013-10-19 04:11:00,
2013-10-19 00:16:00,52.5,44.0,29.95,South,169,3.0,7.0,73,0.00,,,0.00,HR-IXPWINDi_r2_v1.2.,2013-10-19 04:16:00,
2013-10-19 00:21:00,52.5,44.0,29.95,South,178,3.0,6.0,73,0.00,,,0.00,HR-IXPWINDi_r2_v1.2.,2013-10-19 04:21:00,
2013-10-19 00:26:00,52.5,44.0,29.95,SW,215,6.0,7.0,73,0.00,,,0.00,HR-IXPWINDi_r2_v1.2.,2013-10-19 04:26:00,
2013-10-19 00:31:00,52.6,44.1,29.95,South,183,4.0,8.0,73,0.00,,,0.00,HR-IXPWINDi_r2_v1.2.,2013-10-19 04:31:00,
2013-10-19 00:36:00,52.6,43.8,29.96,South,181,3.0,9.0,72,0.00,,,0.00,HR-IXPWINDi_r2_v1.2.,2013-10-19 04:36:00,
2013-10-19 00:41:00,52.6,43.8,29.96,South,179,4.0,9.0,72,0.00,,,0.00,HR-IXPWINDi_r2_v1.2.,2013-10-19 04:41:00,
2013-10-19 00:46:00,52.4,43.9,29.96,SSE,163,6.0,8.0,73,0.00,,,0.00,HR-IXPWINDi_r2_v1.2.,2013-10-19 04:46:00,
2013-10-19 00:51:00,52.3,43.9,29.96,SSW,200,5.0,9.0,73,0.00,,,0.00,HR-IXPWINDi_r2_v1.2.,2013-10-19 04:51:00,
2013-10-19 00:56:00,52.2,44.1,29.96,South,191,7.0,9.0,74,0.00,,,0.00,HR-IXPWINDi_r2_v1.2.,2013-10-19 04:56:00,
2013-10-19 01:02:00,52.0,43.9,29.96,SSW,197,6.0,8.0,74,0.00,,,0.00,HR-IXPWINDi_r2_v1.2.,2013-10-19 05:02:00,
2013-10-19 01:07:00,51.9,43.8,29.96,South,176,5.0,8.0,74,0.00,,,0.00,HR-IXPWINDi_r2_v1.2.,2013-10-19 05:07:00,
2013-10-19 01:12:00,51.7,44.0,29.96,SSE,156,4.0,8.0,75,0.00,,,0.00,HR-IXPWINDi_r2_v1.2.,2013-10-19 05:12:00,
2013-10-19 01:17:00,51.2,43.5,29.96,South,183,4.0,6.0,75,0.00,,,0.00,HR-IXPWINDi_r2_v1.2.,2013-10-19 05:17:00,
2013-10-19 01:22:00,51.1,43.4,29.97,SSW,193,4.0,6.0,75,0.00,,,0.00,HR-IXPWINDi_r2_v1.2.,2013-10-19 05:22:00,
2013-10-19 01:27:00,51.2,42.8,29.97,South,188,5.0,9.0,73,0.00,,,0.00,HR-IXPWINDi_r2_v1.2.,2013-10-19 05:27:00,
2013-10-19 01:32:00,51.4,42.6,29.97,South,181,8.0,9.0,72,0.00,,,0.00,HR-IXPWINDi_r2_v1.2.,2013-10-19 05:32:00,
2013-10-19 01:37:00,51.6,42.5,29.96,SW,223,5.0,8.0,71,0.00,,,0.00,HR-IXPWINDi_r2_v1.2.,2013-10-19 05:37:00,
2013-10-19 01:43:00,51.7,42.2,29.97,South,172,4.0,8.0,70,0.00,,,0.00,HR-IXPWINDi_r2_v1.2.,2013-10-19 05:43:00,
2013-10-19 01:48:00,51.7,41.8,29.97,South,186,3.0,7.0,69,0.00,,,0.00,HR-IXPWINDi_r2_v1.2.,2013-10-19 05:48:00,
2013-10-19 01:53:00,52.1,41.8,29.97,SSE,161,2.0,8.0,68,0.00,,,0.00,HR-IXPWINDi_r2_v1.2.,2013-10-19 05:53:00,
2013-10-19 01:58:00,52.3,41.6,29.97,SSW,208,4.0,8.0,67,0.00,,,0.00,HR-IXPWINDi_r2_v1.2.,2013-10-19 05:58:00,
2013-10-19 02:03:00,52.3,41.6,29.98,South,184,4.0,5.0,67,0.00,,,0.00,HR-IXPWINDi_r2_v1.2.,2013-10-19 06:03:00,
2013-10-19 02:09:00,52.4,41.7,29.98,South,169,3.0,6.0,67,0.00,,,0.00,HR-IXPWINDi_r2_v1.2.,2013-10-19 06:09:00,
2013-10-19 02:14:00,52.3,42.0,29.98,SSE,153,2.0,6.0,68,0.00,,,0.00,HR-IXPWINDi_r2_v1.2.,2013-10-19 06:14:00,
2013-10-19 02:19:00,52.2,41.9,29.98,SSE,167,1.0,6.0,68,0.00,,,0.00,HR-IXPWINDi_r2_v1.2.,2013-10-19 06:19:00,
2013-10-19 02:24:00,52.0,42.1,29.98,SSE,148,1.0,6.0,69,0.00,,,0.00,HR-IXPWINDi_r2_v1.2.,2013-10-19 06:24:00,
2013-10-19 02:29:00,51.5,42.4,29.99,ESE,117,3.0,4.0,71,0.00,,,0.00,HR-IXPWINDi_r2_v1.2.,2013-10-19 06:29:00,
2013-10-19 02:34:00,51.5,42.4,29.99,SE,126,1.0,5.0,71,0.00,,,0.00,HR-IXPWINDi_r2_v1.2.,2013-10-19 06:34:00,
2013-10-19 02:39:00,51.3,42.2,29.98,SSE,154,1.0,5.0,71,0.00,,,0.00,HR-IXPWINDi_r2_v1.2.,2013-10-19 06:39:00,
2013-10-19 02:44:00,50.7,41.2,29.98,SSE,158,1.0,4.0,70,0.00,,,0.00,HR-IXPWINDi_r2_v1.2.,2013-10-19 06:44:00,
2013-10-19 02:50:00,50.4,40.9,29.98,SSE,158,0.0,2.0,70,0.00,,,0.00,HR-IXPWINDi_r2_v1.2.,2013-10-19 06:50:00,
2013-10-19 02:55:00,50.1,41.4,29.98,SSE,158,0.0,2.0,72,0.00,,,0.00,HR-IXPWINDi_r2_v1.2.,2013-10-19 06:55:00,
2013-10-19 03:00:00,49.8,41.8,29.98,SSE,158,0.0,0.0,74,0.00,,,0.00,HR-IXPWINDi_r2_v1.2.,2013-10-19 07:00:00,
2013-10-19 03:05:00,49.3,41.7,29.98,SSE,158,0.0,0.0,75,0.00,,,0.00,HR-IXPWINDi_r2_v1.2.,2013-10-19 07:05:00,
2013-10-19 03:10:00,49.0,41.4,29.98,SSE,158,0.0,0.0,75,0.00,,,0.00,HR-IXPWINDi_r2_v1.2.,2013-10-19 07:10:00,
2013-10-19 03:15:00,49.1,41.8,29.98,SE,128,1.0,1.0,76,0.00,,,0.00,HR-IXPWINDi_r2_v1.2.,2013-10-19 07:15:00,
2013-10-19 03:20:00,49.2,43.6,29.98,SE,129,0.0,1.0,81,0.00,,,0.00,HR-IXPWINDi_r2_v1.2.,2013-10-19 07:20:00,
2013-10-19 03:25:00,49.3,44.3,29.98,SE,130,0.0,1.0,83,0.00,,,0.00,HR-IXPWINDi_r2_v1.2.,2013-10-19 07:25:00,
2013-10-19 03:31:00,49.1,43.8,29.98,SE,130,0.0,1.0,82,0.00,,,0.00,HR-IXPWINDi_r2_v1.2.,2013-10-19 07:31:00,
2013-10-19 03:36:00,49.1,44.4,29.98,SE,130,0.0,1.0,84,0.00,,,0.00,HR-IXPWINDi_r2_v1.2.,2013-10-19 07:36:00,
2013-10-19 03:41:00,48.9,43.3,29.98,SE,130,1.0,1.0,81,0.00,,,0.00,HR-IXPWINDi_r2_v1.2.,2013-10-19 07:41:00,
2013-10-19 03:46:00,48.9,43.6,29.98,ESE,113,1.0,2.0,82,0.00,,,0.00,HR-IXPWINDi_r2_v1.2.,2013-10-19 07:46:00,
2013-10-19 03:51:00,48.8,42.9,29.99,SE,134,0.0,2.0,80,0.00,,,0.00,HR-IXPWINDi_r2_v1.2.,2013-10-19 07:51:00,
2013-10-19 03:57:00,48.7,43.1,29.99,SE,128,0.0,2.0,81,0.00,,,0.00,HR-IXPWINDi_r2_v1.2.,2013-10-19 07:57:00,
2013-10-19 04:02:00,48.4,41.8,29.98,SE,141,0.0,2.0,78,0.00,,,0.00,HR-IXPWINDi_r2_v1.2.,2013-10-19 08:02:00,
2013-10-19 04:07:00,48.0,41.4,29.98,SE,141,0.0,1.0,78,0.00,,,0.00,HR-IXPWINDi_r2_v1.2.,2013-10-19 08:07:00,
2013-10-19 04:12:00,47.5,41.3,29.99,SE,141,0.0,1.0,79,0.00,,,0.00,HR-IXPWINDi_r2_v1.2.,2013-10-19 08:12:00,
2013-10-19 04:17:00,46.9,41.3,29.99,SE,142,0.0,1.0,81,0.00,,,0.00,HR-IXPWINDi_r2_v1.2.,2013-10-19 08:17:00,
2013-10-19 04:22:00,46.6,41.3,29.99,SE,141,0.0,0.0,82,0.00,,,0.00,HR-IXPWINDi_r2_v1.2.,2013-10-19 08:22:00,
2013-10-19 04:27:00,46.4,41.8,29.99,SE,141,0.0,1.0,84,0.00,,,0.00,HR-IXPWINDi_r2_v1.2.,2013-10-19 08:27:00,
2013-10-19 04:32:00,47.1,42.2,29.99,SE,142,0.0,1.0,83,0.00,,,0.00,HR-IXPWINDi_r2_v1.2.,2013-10-19 08:32:00,
2013-10-19 04:38:00,47.8,42.5,29.99,SE,142,0.0,1.0,82,0.00,,,0.00,HR-IXPWINDi_r2_v1.2.,2013-10-19 08:38:00,
2013-10-19 04:43:00,47.5,41.9,29.99,SE,142,1.0,1.0,81,0.00,,,0.00,HR-IXPWINDi_r2_v1.2.,2013-10-19 08:43:00,
2013-10-19 04:48:00,46.7,41.4,30.00,SE,142,0.0,1.0,82,0.00,,,0.00,HR-IXPWINDi_r2_v1.2.,2013-10-19 08:48:00,
2013-10-19 04:53:00,46.7,41.4,29.99,SE,142,1.0,1.0,82,0.00,,,0.00,HR-IXPWINDi_r2_v1.2.,2013-10-19 08:53:00,
2013-10-19 04:58:00,46.5,40.9,30.00,SE,142,1.0,1.0,81,0.00,,,0.00,HR-IXPWINDi_r2_v1.2.,2013-10-19 08:58:00,
2013-10-19 05:03:00,46.6,41.0,30.00,SE,146,1.0,2.0,81,0.00,,,0.00,HR-IXPWINDi_r2_v1.2.,2013-10-19 09:03:00,
2013-10-19 05:09:00,46.6,41.0,30.00,SSE,158,1.0,2.0,81,0.00,,,0.00,HR-IXPWINDi_r2_v1.2.,2013-10-19 09:09:00,
2013-10-19 05:14:00,46.6,41.0,30.00,SSE,158,0.0,2.0,81,0.00,,,0.00,HR-IXPWINDi_r2_v1.2.,2013-10-19 09:14:00,
2013-10-19 05:19:00,46.5,41.3,30.00,SE,146,0.0,1.0,82,0.00,,,0.00,HR-IXPWINDi_r2_v1.2.,2013-10-19 09:19:00,
2013-10-19 05:24:00,46.3,41.1,30.00,SE,146,0.0,1.0,82,0.00,,,0.00,HR-IXPWINDi_r2_v1.2.,2013-10-19 09:24:00,
2013-10-19 05:29:00,46.0,40.8,30.00,SE,146,0.0,1.0,82,0.00,,,0.00,HR-IXPWINDi_r2_v1.2.,2013-10-19 09:29:00,
2013-10-19 05:35:00,45.9,41.0,30.00,SE,146,0.0,0.0,83,0.00,,,0.00,HR-IXPWINDi_r2_v1.2.,2013-10-19 09:35:00,
2013-10-19 05:40:00,45.6,41.0,30.00,SE,146,0.0,1.0,84,0.00,,,0.00,HR-IXPWINDi_r2_v1.2.,2013-10-19 09:40:00,
2013-10-19 05:45:00,45.8,40.9,30.00,SE,146,0.0,1.0,83,0.00,,,0.00,HR-IXPWINDi_r2_v1.2.,2013-10-19 09:45:00,
2013-10-19 05:50:00,45.8,40.9,30.00,SSE,152,0.0,1.0,83,0.00,,,0.00,HR-IXPWINDi_r2_v1.2.,2013-10-19 09:50:00,
2013-10-19 05:56:00,46.0,40.8,30.00,SSE,153,0.0,1.0,82,0.00,,,0.00,HR-IXPWINDi_r2_v1.2.,2013-10-19 09:56:00,
2013-10-19 06:01:00,45.9,40.7,30.00,SSE,152,0.0,1.0,82,0.00,,,0.00,HR-IXPWINDi_r2_v1.2.,2013-10-19 10:01:00,
2013-10-19 06:06:00,46.0,41.1,30.00,SSE,152,0.0,0.0,83,0.00,,,0.00,HR-IXPWINDi_r2_v1.2.,2013-10-19 10:06:00,
2013-10-19 06:11:00,45.5,40.6,30.00,SSE,153,0.0,0.0,83,0.00,,,0.00,HR-IXPWINDi_r2_v1.2.,2013-10-19 10:11:00,
2013-10-19 06:17:00,45.0,40.1,30.00,SSE,152,0.0,0.0,83,0.00,,,0.00,HR-IXPWINDi_r2_v1.2.,2013-10-19 10:17:00,
2013-10-19 06:22:00,45.0,40.4,30.00,SSE,153,0.0,0.0,84,0.00,,,0.00,HR-IXPWINDi_r2_v1.2.,2013-10-19 10:22:00,
2013-10-19 06:27:00,45.0,40.4,29.99,SSE,153,0.0,0.0,84,0.00,,,0.00,HR-IXPWINDi_r2_v1.2.,2013-10-19 10:27:00,
2013-10-19 06:32:00,44.9,40.3,29.99,SSE,152,0.0,0.0,84,0.00,,,0.00,HR-IXPWINDi_r2_v1.2.,2013-10-19 10:32:00,
2013-10-19 06:37:00,45.1,40.2,29.99,SSE,152,0.0,1.0,83,0.00,,,0.00,HR-IXPWINDi_r2_v1.2.,2013-10-19 10:37:00,
2013-10-19 06:42:00,45.1,40.2,29.99,SSE,152,0.0,1.0,83,0.00,,,0.00,HR-IXPWINDi_r2_v1.2.,2013-10-19 10:42:00,
2013-10-19 06:48:00,45.1,40.2,29.99,SSE,152,0.0,0.0,83,0.00,,,0.00,HR-IXPWINDi_r2_v1.2.,2013-10-19 10:48:00,
2013-10-19 06:53:00,45.0,40.4,29.99,SSE,152,0.0,0.0,84,0.00,,,0.00,HR-IXPWINDi_r2_v1.2.,2013-10-19 10:53:00,
2013-10-19 06:58:00,45.1,40.2,29.99,SSE,152,0.0,0.0,83,0.00,,,0.00,HR-IXPWINDi_r2_v1.2.,2013-10-19 10:58:00,
2013-10-19 07:03:00,45.5,40.9,29.99,SSE,152,0.0,0.0,84,0.00,,,0.00,HR-IXPWINDi_r2_v1.2.,2013-10-19 11:03:00,
2013-10-19 07:08:00,45.2,40.3,29.99,SSE,153,0.0,1.0,83,0.00,,,0.00,HR-IXPWINDi_r2_v1.2.,2013-10-19 11:08:00,
2013-10-19 07:14:00,44.7,40.1,29.98,SSE,152,0.0,1.0,84,0.00,,,0.00,HR-IXPWINDi_r2_v1.2.,2013-10-19 11:14:00,
2013-10-19 07:19:00,45.0,41.0,29.99,SSE,153,0.0,0.0,86,0.00,,,0.00,HR-IXPWINDi_r2_v1.2.,2013-10-19 11:19:00,
2013-10-19 07:24:00,45.7,41.1,29.98,SSE,152,0.0,0.0,84,0.00,,,0.00,HR-IXPWINDi_r2_v1.2.,2013-10-19 11:24:00,
2013-10-19 07:29:00,45.6,40.7,29.98,SSE,152,0.0,0.0,83,0.00,,,0.00,HR-IXPWINDi_r2_v1.2.,2013-10-19 11:29:00,
2013-10-19 07:35:00,45.5,40.6,29.99,SSE,153,0.0,0.0,83,0.00,,,0.00,HR-IXPWINDi_r2_v1.2.,2013-10-19 11:35:00,
2013-10-19 07:40:00,45.8,40.6,29.99,SSE,152,0.0,0.0,82,0.00,,,0.00,HR-IXPWINDi_r2_v1.2.,2013-10-19 11:40:00,
2013-10-19 07:45:00,46.0,40.8,29.99,SSE,152,0.0,0.0,82,0.00,,,0.00,HR-IXPWINDi_r2_v1.2.,2013-10-19 11:45:00,
2013-10-19 07:50:00,46.4,41.5,30.00,SSE,152,0.0,0.0,83,0.00,,,0.00,HR-IXPWINDi_r2_v1.2.,2013-10-19 11:50:00,
2013-10-19 07:55:00,46.6,41.3,30.00,SSE,152,0.0,0.0,82,0.00,,,0.00,HR-IXPWINDi_r2_v1.2.,2013-10-19 11:55:00,
2013-10-19 08:01:00,46.7,41.8,30.01,SSE,153,0.0,0.0,83,0.00,,,0.00,HR-IXPWINDi_r2_v1.2.,2013-10-19 12:01:00,
2013-10-19 08:06:00,47.0,42.7,30.01,SSE,152,0.0,0.0,85,0.00,,,0.00,HR-IXPWINDi_r2_v1.2.,2013-10-19 12:06:00,
2013-10-19 08:11:00,47.6,44.2,30.01,SE,136,0.0,1.0,88,0.00,,,0.00,HR-IXPWINDi_r2_v1.2.,2013-10-19 12:11:00,
2013-10-19 08:16:00,47.8,44.1,30.01,SE,137,0.0,1.0,87,0.00,,,0.00,HR-IXPWINDi_r2_v1.2.,2013-10-19 12:16:00,
2013-10-19 08:21:00,47.6,43.9,30.01,SE,136,0.0,0.0,87,0.00,,,0.00,HR-IXPWINDi_r2_v1.2.,2013-10-19 12:21:00,
2013-10-19 08:27:00,47.7,44.0,30.01,SE,137,0.0,0.0,87,0.00,,,0.00,HR-IXPWINDi_r2_v1.2.,2013-10-19 12:27:00,
2013-10-19 08:32:00,48.1,44.4,30.01,SE,136,0.0,0.0,87,0.00,,,0.00,HR-IXPWINDi_r2_v1.2.,2013-10-19 12:32:00,
2013-10-19 08:37:00,48.4,44.3,30.01,SE,137,0.0,0.0,86,0.00,,,0.00,HR-IXPWINDi_r2_v1.2.,2013-10-19 12:37:00,
2013-10-19 08:42:00,48.6,44.5,30.01,SE,136,0.0,0.0,86,0.00,,,0.00,HR-IXPWINDi_r2_v1.2.,2013-10-19 12:42:00,
2013-10-19 08:47:00,48.9,44.5,30.01,SE,137,0.0,1.0,85,0.00,,,0.00,HR-IXPWINDi_r2_v1.2.,2013-10-19 12:47:00,
2013-10-19 08:52:00,49.6,45.8,30.01,SE,136,0.0,1.0,87,0.00,,,0.00,HR-IXPWINDi_r2_v1.2.,2013-10-19 12:52:00,
2013-10-19 08:57:00,50.3,45.3,30.01,SE,138,0.0,1.0,83,0.00,,,0.00,HR-IXPWINDi_r2_v1.2.,2013-10-19 12:57:00,
2013-10-19 09:02:00,50.6,44.9,30.01,SE,136,0.0,1.0,81,0.00,,,0.00,HR-IXPWINDi_r2_v1.2.,2013-10-19 13:02:00,
2013-10-19 09:08:00,50.8,44.1,30.01,SE,138,0.0,1.0,78,0.00,,,0.00,HR-IXPWINDi_r2_v1.2.,2013-10-19 13:08:00,
2013-10-19 09:13:00,51.3,43.2,30.01,SE,136,0.0,0.0,74,0.00,,,0.00,HR-IXPWINDi_r2_v1.2.,2013-10-19 13:13:00,
2013-10-19 09:18:00,52.0,43.9,30.01,SE,136,0.0,0.0,74,0.00,,,0.00,HR-IXPWINDi_r2_v1.2.,2013-10-19 13:18:00,
2013-10-19 09:23:00,52.4,45.0,30.01,SE,137,0.0,0.0,76,0.00,,,0.00,HR-IXPWINDi_r2_v1.2.,2013-10-19 13:23:00,
2013-10-19 09:28:00,52.8,45.4,30.01,SE,137,0.0,0.0,76,0.00,,,0.00,HR-IXPWINDi_r2_v1.2.,2013-10-19 13:28:00,
2013-10-19 09:34:00,53.4,45.6,30.02,SE,137,0.0,0.0,75,0.00,,,0.00,HR-IXPWINDi_r2_v1.2.,2013-10-19 13:34:00,
2013-10-19 09:39:00,53.6,46.2,30.02,East,101,1.0,2.0,76,0.00,,,0.00,HR-IXPWINDi_r2_v1.2.,2013-10-19 13:39:00,
2013-10-19 09:44:00,53.7,45.9,30.02,East,101,1.0,2.0,75,0.00,,,0.00,HR-IXPWINDi_r2_v1.2.,2013-10-19 13:44:00,
2013-10-19 09:49:00,53.9,46.8,30.01,East,101,1.0,2.0,77,0.00,,,0.00,HR-IXPWINDi_r2_v1.2.,2013-10-19 13:49:00,
2013-10-19 09:54:00,54.1,45.2,30.01,ESE,103,1.0,2.0,72,0.00,,,0.00,HR-IXPWINDi_r2_v1.2.,2013-10-19 13:54:00,
2013-10-19 10:00:00,54.3,43.9,30.01,ESE,110,1.0,3.0,68,0.00,,,0.00,HR-IXPWINDi_r2_v1.2.,2013-10-19 14:00:00,
2013-10-19 10:05:00,54.6,44.6,30.01,ESE,108,1.0,3.0,69,0.00,,,0.00,HR-IXPWINDi_r2_v1.2.,2013-10-19 14:05:00,
2013-10-19 10:10:00,54.9,44.5,30.01,ESE,120,1.0,3.0,68,0.00,,,0.00,HR-IXPWINDi_r2_v1.2.,2013-10-19 14:10:00,
2013-10-19 10:15:00,55.2,44.0,30.02,ESE,105,2.0,3.0,66,0.00,,,0.00,HR-IXPWINDi_r2_v1.2.,2013-10-19 14:15:00,
2013-10-19 10:20:00,55.4,43.8,30.01,East,101,3.0,3.0,65,0.00,,,0.00,HR-IXPWINDi_r2_v1.2.,2013-10-19 14:20:00,
2013-10-19 10:25:00,55.7,45.2,30.01,ESE,103,1.0,3.0,68,0.00,,,0.00,HR-IXPWINDi_r2_v1.2.,2013-10-19 14:25:00,
2013-10-19 10:30:00,56.1,45.2,30.01,ESE,111,1.0,3.0,67,0.00,,,0.00,HR-IXPWINDi_r2_v1.2.,2013-10-19 14:30:00,
2013-10-19 10:36:00,56.7,45.8,30.01,ESE,104,1.0,2.0,67,0.00,,,0.00,HR-IXPWINDi_r2_v1.2.,2013-10-19 14:36:00,
2013-10-19 10:41:00,57.1,45.8,30.01,East,79,2.0,3.0,66,0.00,,,0.00,HR-IXPWINDi_r2_v1.2.,2013-10-19 14:41:00,
2013-10-19 10:46:00,57.3,46.4,30.01,East,92,1.0,3.0,67,0.00,,,0.00,HR-IXPWINDi_r2_v1.2.,2013-10-19 14:46:00,
2013-10-19 10:51:00,57.6,46.7,30.01,East,94,2.0,3.0,67,0.00,,,0.00,HR-IXPWINDi_r2_v1.2.,2013-10-19 14:51:00,
2013-10-19 10:57:00,57.9,47.7,30.01,ESE,104,1.0,3.0,69,0.00,,,0.00,HR-IXPWINDi_r2_v1.2.,2013-10-19 14:57:00,
2013-10-19 11:02:00,58.4,48.2,30.00,East,98,0.0,3.0,69,0.00,,,0.00,HR-IXPWINDi_r2_v1.2.,2013-10-19 15:02:00,
2013-10-19 11:07:00,58.7,48.9,30.00,East,99,1.0,2.0,70,0.00,,,0.00,HR-IXPWINDi_r2_v1.2.,2013-10-19 15:07:00,
2013-10-19 11:12:00,58.8,49.0,30.00,East,99,0.0,2.0,70,0.00,,,0.00,HR-IXPWINDi_r2_v1.2.,2013-10-19 15:12:00,
2013-10-19 11:17:00,59.3,49.5,30.00,East,98,0.0,2.0,70,0.00,,,0.00,HR-IXPWINDi_r2_v1.2.,2013-10-19 15:17:00,
2013-10-19 11:22:00,59.7,50.6,29.99,East,99,1.0,1.0,72,0.00,,,0.00,HR-IXPWINDi_r2_v1.2.,2013-10-19 15:22:00,
2013-10-19 11:28:00,59.9,50.4,29.99,ENE,62,2.0,2.0,71,0.00,,,0.00,HR-IXPWINDi_r2_v1.2.,2013-10-19 15:28:00,
2013-10-19 11:33:00,59.9,50.4,30.00,ENE,69,2.0,3.0,71,0.00,,,0.00,HR-IXPWINDi_r2_v1.2.,2013-10-19 15:33:00,
2013-10-19 11:38:00,59.9,51.2,29.99,NE,55,2.0,5.0,73,0.00,,,0.00,HR-IXPWINDi_r2_v1.2.,2013-10-19 15:38:00,
2013-10-19 11:43:00,60.1,51.4,29.99,NE,51,3.0,5.0,73,0.00,,,0.00,HR-IXPWINDi_r2_v1.2.,2013-10-19 15:43:00,
2013-10-19 11:49:00,60.3,51.9,29.99,ENE,58,3.0,5.0,74,0.00,,,0.00,HR-IXPWINDi_r2_v1.2.,2013-10-19 15:49:00,
2013-10-19 11:54:00,60.3,51.2,29.99,NE,52,3.0,5.0,72,0.00,,,0.00,HR-IXPWINDi_r2_v1.2.,2013-10-19 15:54:00,
2013-10-19 11:59:00,60.6,51.5,29.99,East,79,3.0,6.0,72,0.00,,,0.00,HR-IXPWINDi_r2_v1.2.,2013-10-19 15:59:00,
2013-10-19 12:04:00,60.4,50.5,29.98,East,96,2.0,6.0,70,0.00,,,0.00,HR-IXPWINDi_r2_v1.2.,2013-10-19 16:04:00,
2013-10-19 12:09:00,60.7,51.2,29.98,East,84,2.0,5.0,71,0.00,,,0.00,HR-IXPWINDi_r2_v1.2.,2013-10-19 16:09:00,
2013-10-19 12:15:00,61.0,51.1,29.98,East,79,3.0,5.0,70,0.00,,,0.00,HR-IXPWINDi_r2_v1.2.,2013-10-19 16:15:00,
2013-10-19 12:20:00,61.3,51.4,29.98,NE,52,4.0,7.0,70,0.00,,,0.00,HR-IXPWINDi_r2_v1.2.,2013-10-19 16:20:00,
2013-10-19 12:25:00,61.8,50.3,29.98,NE,52,7.0,10.0,66,0.00,,,0.00,HR-IXPWINDi_r2_v1.2.,2013-10-19 16:25:00,
2013-10-19 12:30:00,61.9,49.5,29.97,ENE,63,7.0,10.0,64,0.00,,,0.00,HR-IXPWINDi_r2_v1.2.,2013-10-19 16:30:00,
2013-10-19 12:35:00,61.6,49.7,29.97,ENE,66,8.0,10.0,65,0.00,,,0.00,HR-IXPWINDi_r2_v1.2.,2013-10-19 16:35:00,
2013-10-19 12:41:00,61.5,50.8,29.97,NE,44,6.0,12.0,68,0.00,,,0.00,HR-IXPWINDi_r2_v1.2.,2013-10-19 16:41:00,
2013-10-19 12:46:00,61.5,49.6,29.97,ENE,67,7.0,12.0,65,0.00,,,0.00,HR-IXPWINDi_r2_v1.2.,2013-10-19 16:46:00,
2013-10-19 12:51:00,61.5,49.6,29.97,ENE,59,9.0,13.0,65,0.00,,,0.00,HR-IXPWINDi_r2_v1.2.,2013-10-19 16:51:00,
2013-10-19 12:56:00,61.7,49.8,29.96,NE,46,7.0,13.0,65,0.00,,,0.00,HR-IXPWINDi_r2_v1.2.,2013-10-19 16:56:00,
2013-10-19 13:01:00,61.9,49.9,29.96,NE,56,9.0,13.0,65,0.00,,,0.00,HR-IXPWINDi_r2_v1.2.,2013-10-19 17:01:00,
2013-10-19 13:06:00,62.1,50.6,29.96,NNE,20,12.0,13.0,66,0.00,,,0.00,HR-IXPWINDi_r2_v1.2.,2013-10-19 17:06:00,
2013-10-19 13:12:00,62.3,49.5,29.95,NNE,23,8.0,13.0,63,0.00,,,0.00,HR-IXPWINDi_r2_v1.2.,2013-10-19 17:12:00,
2013-10-19 13:17:00,62.1,49.7,29.95,NE,46,10.0,13.0,64,0.00,,,0.00,HR-IXPWINDi_r2_v1.2.,2013-10-19 17:17:00,
2013-10-19 13:22:00,62.2,48.5,29.95,NE,44,8.0,13.0,61,0.00,,,0.00,HR-IXPWINDi_r2_v1.2.,2013-10-19 17:22:00,
2013-10-19 13:27:00,62.2,49.0,29.95,ENE,62,10.0,13.0,62,0.00,,,0.00,HR-IXPWINDi_r2_v1.2.,2013-10-19 17:27:00,
2013-10-19 13:32:00,62.5,49.3,29.95,ENE,62,11.0,13.0,62,0.00,,,0.00,HR-IXPWINDi_r2_v1.2.,2013-10-19 17:32:00,
2013-10-19 13:38:00,62.6,49.3,29.94,NE,54,13.0,14.0,62,0.00,,,0.00,HR-IXPWINDi_r2_v1.2.,2013-10-19 17:38:00,
2013-10-19 13:43:00,62.4,49.2,29.95,NE,50,11.0,14.0,62,0.00,,,0.00,HR-IXPWINDi_r2_v1.2.,2013-10-19 17:43:00,
2013-10-19 13:48:00,62.4,49.2,29.94,ENE,65,11.0,14.0,62,0.00,,,0.00,HR-IXPWINDi_r2_v1.2.,2013-10-19 17:48:00,
2013-10-19 13:54:00,62.4,49.2,29.94,NE,47,8.0,14.0,62,0.00,,,0.00,HR-IXPWINDi_r2_v1.2.,2013-10-19 17:54:00,
2013-10-19 13:59:00,62.7,48.1,29.94,ENE,65,14.0,14.0,59,0.00,,,0.00,HR-IXPWINDi_r2_v1.2.,2013-10-19 17:59:00,
2013-10-19 14:04:00,62.9,47.4,29.94,NE,54,9.0,14.0,57,0.00,,,0.00,HR-IXPWINDi_r2_v1.2.,2013-10-19 18:04:00,
2013-10-19 14:09:00,63.0,46.5,29.94,ENE,65,13.0,14.0,55,0.00,,,0.00,HR-IXPWINDi_r2_v1.2.,2013-10-19 18:09:00,
2013-10-19 14:14:00,63.1,48.5,29.93,ENE,60,10.0,13.0,59,0.00,,,0.00,HR-IXPWINDi_r2_v1.2.,2013-10-19 18:14:00,
2013-10-19 14:19:00,63.1,47.1,29.93,NE,46,12.0,15.0,56,0.00,,,0.00,HR-IXPWINDi_r2_v1.2.,2013-10-19 18:19:00,
2013-10-19 14:24:00,63.2,47.7,29.93,NE,46,9.0,15.0,57,0.00,,,0.00,HR-IXPWINDi_r2_v1.2.,2013-10-19 18:24:00,
2013-10-19 14:30:00,63.3,49.1,29.93,ENE,67,12.0,14.0,60,0.00,,,0.00,HR-IXPWINDi_r2_v1.2.,2013-10-19 18:30:00,
2013-10-19 14:35:00,63.0,46.0,29.93,ENE,60,11.0,13.0,54,0.00,,,0.00,HR-IXPWINDi_r2_v1.2.,2013-10-19 18:35:00,
2013-10-19 14:40:00,62.9,47.8,29.93,NE,45,11.0,14.0,58,0.00,,,0.00,HR-IXPWINDi_r2_v1.2.,2013-10-19 18:40:00,
2013-10-19 14:45:00,63.0,47.5,29.93,NE,41,10.0,14.0,57,0.00,,,0.00,HR-IXPWINDi_r2_v1.2.,2013-10-19 18:45:00,
2013-10-19 14:51:00,63.0,45.6,29.92,NNE,30,8.0,14.0,53,0.00,,,0.00,HR-IXPWINDi_r2_v1.2.,2013-10-19 18:51:00,
2013-10-19 14:56:00,62.9,47.8,29.92,ENE,62,9.0,12.0,58,0.00,,,0.00,HR-IXPWINDi_r2_v1.2.,2013-10-19 18:56:00,
2013-10-19 15:02:00,62.7,47.2,29.93,NE,39,9.0,12.0,57,0.00,,,0.00,HR-IXPWINDi_r2_v1.2.,2013-10-19 19:02:00,
2013-10-19 15:07:00,62.7,47.7,29.93,NE,46,8.0,12.0,58,0.00,,,0.00,HR-IXPWINDi_r2_v1.2.,2013-10-19 19:07:00,
2013-10-19 15:12:00,62.8,47.3,29.92,NNE,13,10.0,13.0,57,0.00,,,0.00,HR-IXPWINDi_r2_v1.2.,2013-10-19 19:12:00,
2013-10-19 15:17:00,62.6,47.6,29.93,NNE,19,13.0,15.0,58,0.00,,,0.00,HR-IXPWINDi_r2_v1.2.,2013-10-19 19:17:00,
2013-10-19 15:22:00,62.2,46.7,29.93,NNE,18,9.0,15.0,57,0.00,,,0.00,HR-IXPWINDi_r2_v1.2.,2013-10-19 19:22:00,
2013-10-19 15:27:00,61.9,47.8,29.93,North,8,12.0,15.0,60,0.00,,,0.00,HR-IXPWINDi_r2_v1.2.,2013-10-19 19:27:00,
2013-10-19 15:32:00,61.8,49.0,29.92,NE,34,10.0,15.0,63,0.00,,,0.00,HR-IXPWINDi_r2_v1.2.,2013-10-19 19:32:00,
2013-10-19 15:37:00,61.8,49.0,29.92,NNE,25,8.0,13.0,63,0.00,,,0.00,HR-IXPWINDi_r2_v1.2.,2013-10-19 19:37:00,
2013-10-19 15:42:00,61.7,48.9,29.92,NNE,22,12.0,13.0,63,0.00,,,0.00,HR-IXPWINDi_r2_v1.2.,2013-10-19 19:42:00,
2013-10-19 15:47:00,61.7,47.6,29.91,NNE,13,10.0,13.0,60,0.00,,,0.00,HR-IXPWINDi_r2_v1.2.,2013-10-19 19:47:00,
2013-10-19 15:53:00,61.8,48.2,29.91,North,6,12.0,13.0,61,0.00,,,0.00,HR-IXPWINDi_r2_v1.2.,2013-10-19 19:53:00,
2013-10-19 15:58:00,61.6,48.0,29.91,NNE,18,8.0,13.0,61,0.00,,,0.00,HR-IXPWINDi_r2_v1.2.,2013-10-19 19:58:00,
2013-10-19 16:03:00,61.4,48.6,29.91,North,10,11.0,13.0,63,0.00,,,0.00,HR-IXPWINDi_r2_v1.2.,2013-10-19 20:03:00,
2013-10-19 16:08:00,61.2,48.0,29.89,NNE,25,11.0,14.0,62,0.00,,,0.00,HR-IXPWINDi_r2_v1.2.,2013-10-19 20:08:00,
2013-10-19 16:13:00,61.1,47.5,29.90,NNE,15,8.0,14.0,61,0.00,,,0.00,HR-IXPWINDi_r2_v1.2.,2013-10-19 20:13:00,
2013-10-19 16:18:00,61.0,48.3,29.90,NNE,16,7.0,13.0,63,0.00,,,0.00,HR-IXPWINDi_r2_v1.2.,2013-10-19 20:18:00,
2013-10-19 16:23:00,60.9,47.3,29.88,NNW,348,5.0,12.0,61,0.00,,,0.00,HR-IXPWINDi_r2_v1.2.,2013-10-19 20:23:00,
2013-10-19 16:29:00,60.8,47.6,29.88,NNW,344,5.0,8.0,62,0.00,,,0.00,HR-IXPWINDi_r2_v1.2.,2013-10-19 20:29:00,
2013-10-19 16:34:00,60.7,48.0,29.88,NNE,29,2.0,8.0,63,0.00,,,0.00,HR-IXPWINDi_r2_v1.2.,2013-10-19 20:34:00,
2013-10-19 16:39:00,60.7,48.0,29.89,NNE,29,5.0,8.0,63,0.00,,,0.00,HR-IXPWINDi_r2_v1.2.,2013-10-19 20:39:00,
2013-10-19 16:44:00,60.7,47.1,29.88,NW,316,3.0,7.0,61,0.00,,,0.00,HR-IXPWINDi_r2_v1.2.,2013-10-19 20:44:00,
2013-10-19 16:50:00,60.7,48.0,29.89,NNE,12,7.0,7.0,63,0.00,,,0.00,HR-IXPWINDi_r2_v1.2.,2013-10-19 20:50:00,
2013-10-19 16:55:00,60.6,47.5,29.89,North,8,5.0,7.0,62,0.00,,,0.00,HR-IXPWINDi_r2_v1.2.,2013-10-19 20:55:00,
2013-10-19 17:01:00,60.6,47.0,29.90,NE,37,4.0,7.0,61,0.00,,,0.00,HR-IXPWINDi_r2_v1.2.,2013-10-19 21:01:00,
2013-10-19 17:06:00,60.5,48.6,29.90,North,8,4.0,6.0,65,0.00,,,0.00,HR-IXPWINDi_r2_v1.2.,2013-10-19 21:06:00,
2013-10-19 17:11:00,60.5,48.2,29.89,NNE,18,3.0,6.0,64,0.00,,,0.00,HR-IXPWINDi_r2_v1.2.,2013-10-19 21:11:00,
2013-10-19 17:16:00,60.3,47.2,29.87,NW,325,5.0,6.0,62,0.00,,,0.00,HR-IXPWINDi_r2_v1.2.,2013-10-19 21:16:00,
2013-10-19 17:22:00,60.3,48.4,29.87,NNW,328,3.0,7.0,65,0.00,,,0.00,HR-IXPWINDi_r2_v1.2.,2013-10-19 21:22:00,
2013-10-19 17:27:00,60.2,48.7,29.88,North,351,2.0,7.0,66,0.00,,,0.00,HR-IXPWINDi_r2_v1.2.,2013-10-19 21:27:00,
2013-10-19 17:32:00,60.1,47.8,29.87,North,10,2.0,7.0,64,0.00,,,0.00,HR-IXPWINDi_r2_v1.2.,2013-10-19 21:32:00,
2013-10-19 17:37:00,60.0,48.1,29.87,NW,312,3.0,5.0,65,0.00,,,0.00,HR-IXPWINDi_r2_v1.2.,2013-10-19 21:37:00,
2013-10-19 17:43:00,60.0,48.6,29.87,WNW,284,3.0,6.0,66,0.00,,,0.00,HR-IXPWINDi_r2_v1.2.,2013-10-19 21:43:00,
2013-10-19 17:48:00,59.9,48.9,29.87,NNW,338,2.0,7.0,67,0.00,,,0.00,HR-IXPWINDi_r2_v1.2.,2013-10-19 21:48:00,
2013-10-19 17:53:00,59.9,49.3,29.86,NNW,338,6.0,7.0,68,0.00,,,0.00,HR-IXPWINDi_r2_v1.2.,2013-10-19 21:53:00,
2013-10-19 17:58:00,59.8,49.2,29.86,WNW,285,3.0,6.0,68,0.00,,,0.00,HR-IXPWINDi_r2_v1.2.,2013-10-19 21:58:00,
2013-10-19 18:03:00,59.7,48.3,29.86,NW,321,4.0,6.0,66,0.00,,,0.00,HR-IXPWINDi_r2_v1.2.,2013-10-19 22:03:00,
2013-10-19 18:09:00,59.7,47.4,29.87,NNE,16,3.0,7.0,64,0.00,,,0.00,HR-IXPWINDi_r2_v1.2.,2013-10-19 22:09:00,
2013-10-19 18:14:00,59.8,47.5,29.85,WNW,302,3.0,7.0,64,0.00,,,0.00,HR-IXPWINDi_r2_v1.2.,2013-10-19 22:14:00,
2013-10-19 18:19:00,59.7,47.9,29.85,SE,124,1.0,7.0,65,0.00,,,0.00,HR-IXPWINDi_r2_v1.2.,2013-10-19 22:19:00,
2013-10-19 18:24:00,59.6,47.4,29.85,NW,315,3.0,7.0,64,0.00,,,0.00,HR-IXPWINDi_r2_v1.2.,2013-10-19 22:24:00,
2013-10-19 18:30:00,59.7,48.3,29.85,West,275,3.0,7.0,66,0.00,,,0.00,HR-IXPWINDi_r2_v1.2.,2013-10-19 22:30:00,
2013-10-19 18:35:00,59.7,48.7,29.85,WNW,297,5.0,7.0,67,0.00,,,0.00,HR-IXPWINDi_r2_v1.2.,2013-10-19 22:35:00,
2013-10-19 18:40:00,59.7,48.7,29.85,NW,308,4.0,8.0,67,0.00,,,0.00,HR-IXPWINDi_r2_v1.2.,2013-10-19 22:40:00,
2013-10-19 18:45:00,59.7,48.7,29.85,WNW,300,4.0,8.0,67,0.00,,,0.00,HR-IXPWINDi_r2_v1.2.,2013-10-19 22:45:00,
2013-10-19 18:51:00,59.7,48.7,29.84,NW,308,5.0,9.0,67,0.00,,,0.00,HR-IXPWINDi_r2_v1.2.,2013-10-19 22:51:00,
2013-10-19 18:56:00,59.7,48.7,29.83,North,357,4.0,9.0,67,0.00,,,0.00,HR-IXPWINDi_r2_v1.2.,2013-10-19 22:56:00,
2013-10-19 19:02:00,59.7,48.3,29.82,North,351,3.0,11.0,66,0.00,,,0.00,HR-IXPWINDi_r2_v1.2.,2013-10-19 23:02:00,
2013-10-19 19:07:00,59.7,48.3,29.83,North,349,6.0,11.0,66,0.00,,,0.00,HR-IXPWINDi_r2_v1.2.,2013-10-19 23:07:00,
2013-10-19 19:12:00,59.7,48.3,29.85,NNE,14,4.0,12.0,66,0.00,,,0.00,HR-IXPWINDi_r2_v1.2.,2013-10-19 23:12:00,
2013-10-19 19:17:00,59.8,46.7,29.85,North,349,6.0,12.0,62,0.00,,,0.00,HR-IXPWINDi_r2_v1.2.,2013-10-19 23:17:00,
2013-10-19 19:22:00,59.9,47.2,29.86,NW,323,4.0,11.0,63,0.00,,,0.00,HR-IXPWINDi_r2_v1.2.,2013-10-19 23:22:00,
2013-10-19 19:27:00,59.9,47.2,29.86,NNW,330,5.0,10.0,63,0.00,,,0.00,HR-IXPWINDi_r2_v1.2.,2013-10-19 23:27:00,
2013-10-19 19:32:00,60.0,47.7,29.85,NNW,339,5.0,11.0,64,0.00,,,0.00,HR-IXPWINDi_r2_v1.2.,2013-10-19 23:32:00,
2013-10-19 19:37:00,60.0,48.1,29.85,NNW,347,9.0,11.0,65,0.00,,,0.00,HR-IXPWINDi_r2_v1.2.,2013-10-19 23:37:00,
2013-10-19 19:42:00,59.9,48.1,29.84,NNW,346,4.0,11.0,65,0.00,,,0.00,HR-IXPWINDi_r2_v1.2.,2013-10-19 23:42:00,
2013-10-19 19:47:00,59.9,47.6,29.84,North,6,7.0,12.0,64,0.00,,,0.00,HR-IXPWINDi_r2_v1.2.,2013-10-19 23:47:00,
2013-10-19 19:52:00,59.9,48.9,29.84,North,1,9.0,12.0,67,0.00,,,0.00,HR-IXPWINDi_r2_v1.2.,2013-10-19 23:52:00,
2013-10-19 19:57:00,59.9,49.6,29.83,NNW,345,3.0,12.0,69,0.00,,,0.00,HR-IXPWINDi_r2_v1.2.,2013-10-19 23:57:00,
2013-10-19 20:03:00,59.8,49.6,29.84,North,356,5.0,11.0,69,0.00,,,0.00,HR-IXPWINDi_r2_v1.2.,2013-10-20 00:03:00,
2013-10-19 20:08:00,59.9,48.9,29.82,NNW,340,5.0,16.0,67,0.00,,,0.00,HR-IXPWINDi_r2_v1.2.,2013-10-20 00:08:00,
2013-10-19 20:13:00,59.8,49.2,29.82,NNE,21,10.0,16.0,68,0.00,,,0.00,HR-IXPWINDi_r2_v1.2.,2013-10-20 00:13:00,
2013-10-19 20:18:00,59.8,49.2,29.83,WNW,302,3.0,11.0,68,0.00,,,0.00,HR-IXPWINDi_r2_v1.2.,2013-10-20 00:18:00,
2013-10-19 20:23:00,59.9,50.4,29.83,North,352,9.0,11.0,71,0.00,,,0.00,HR-IXPWINDi_r2_v1.2.,2013-10-20 00:23:00,
2013-10-19 20:28:00,59.9,50.8,29.83,North,355,8.0,13.0,72,0.00,,,0.00,HR-IXPWINDi_r2_v1.2.,2013-10-20 00:28:00,
2013-10-19 20:33:00,60.0,51.3,29.84,North,360,8.0,13.0,73,0.00,,,0.00,HR-IXPWINDi_r2_v1.2.,2013-10-20 00:33:00,
2013-10-19 20:38:00,60.0,51.3,29.85,North,359,11.0,17.0,73,0.00,,,0.00,HR-IXPWINDi_r2_v1.2.,2013-10-20 00:38:00,
2013-10-19 20:43:00,60.0,51.6,29.84,North,8,9.0,17.0,74,0.00,,,0.00,HR-IXPWINDi_r2_v1.2.,2013-10-20 00:43:00,
2013-10-19 20:48:00,60.0,52.0,29.84,NNE,16,12.0,17.0,75,0.00,,,0.00,HR-IXPWINDi_r2_v1.2.,2013-10-20 00:48:00,
2013-10-19 20:53:00,60.0,52.4,29.84,North,360,8.0,15.0,76,0.00,,,0.00,HR-IXPWINDi_r2_v1.2.,2013-10-20 00:53:00,
2013-10-19 20:58:00,59.9,52.6,29.84,NNW,346,8.0,14.0,77,0.00,,,0.00,HR-IXPWINDi_r2_v1.2.,2013-10-20 00:58:00,
2013-10-19 21:03:00,59.9,52.6,29.84,North,8,7.0,14.0,77,0.00,,,0.00,HR-IXPWINDi_r2_v1.2.,2013-10-20 01:03:00,
2013-10-19 21:09:00,59.8,52.9,29.84,North,6,10.0,11.0,78,0.00,,,0.00,HR-IXPWINDi_r2_v1.2.,2013-10-20 01:09:00,
2013-10-19 21:14:00,59.9,53.3,29.84,NNE,13,10.0,11.0,79,0.00,,,0.00,HR-IXPWINDi_r2_v1.2.,2013-10-20 01:14:00,
2013-10-19 21:19:00,59.9,53.7,29.84,North,354,7.0,12.0,80,0.00,,,0.00,HR-IXPWINDi_r2_v1.2.,2013-10-20 01:19:00,
2013-10-19 21:24:00,59.9,53.7,29.84,North,8,11.0,13.0,80,0.00,,,0.00,HR-IXPWINDi_r2_v1.2.,2013-10-20 01:24:00,
2013-10-19 21:30:00,59.9,54.0,29.82,NNW,342,7.0,13.0,81,0.00,,,0.00,HR-IXPWINDi_r2_v1.2.,2013-10-20 01:30:00,
2013-10-19 21:35:00,59.9,54.3,29.82,NNW,347,9.0,14.0,82,0.00,,,0.00,HR-IXPWINDi_r2_v1.2.,2013-10-20 01:35:00,
2013-10-19 21:40:00,59.8,54.6,29.81,NNW,342,9.0,14.0,83,0.00,,,0.00,HR-IXPWINDi_r2_v1.2.,2013-10-20 01:40:00,
2013-10-19 21:45:00,59.7,54.8,29.81,North,359,11.0,15.0,84,0.00,,,0.00,HR-IXPWINDi_r2_v1.2.,2013-10-20 01:45:00,
2013-10-19 21:50:00,59.7,55.1,29.82,North,360,13.0,15.0,85,0.00,,,0.00,HR-IXPWINDi_r2_v1.2.,2013-10-20 01:50:00,
2013-10-19 21:55:00,59.7,55.1,29.81,North,352,9.0,16.0,85,0.00,,,0.00,HR-IXPWINDi_r2_v1.2.,2013-10-20 01:55:00,
2013-10-19 22:00:00,59.8,55.5,29.80,North,11,8.0,16.0,86,0.00,,,0.00,HR-IXPWINDi_r2_v1.2.,2013-10-20 02:00:00,
2013-10-19 22:05:00,59.9,55.3,29.80,North,352,9.0,16.0,85,0.00,,,0.00,HR-IXPWINDi_r2_v1.2.,2013-10-20 02:05:00,
2013-10-19 22:10:00,60.1,55.5,29.81,NNE,13,11.0,14.0,85,0.00,,,0.00,HR-IXPWINDi_r2_v1.2.,2013-10-20 02:10:00,
2013-10-19 22:16:00,60.3,55.7,29.80,NNE,25,6.0,14.0,85,0.00,,,0.00,HR-IXPWINDi_r2_v1.2.,2013-10-20 02:16:00,
2013-10-19 22:21:00,60.5,55.9,29.80,NE,38,9.0,14.0,85,0.00,,,0.00,HR-IXPWINDi_r2_v1.2.,2013-10-20 02:21:00,
2013-10-19 22:26:00,60.6,55.7,29.80,NNE,28,9.0,14.0,84,0.00,,,0.00,HR-IXPWINDi_r2_v1.2.,2013-10-20 02:26:00,
2013-10-19 22:31:00,60.7,55.8,29.80,NE,34,9.0,15.0,84,0.00,,,0.00,HR-IXPWINDi_r2_v1.2.,2013-10-20 02:31:00,
2013-10-19 22:36:00,60.8,54.9,29.80,ENE,61,14.0,17.0,81,0.00,,,0.00,HR-IXPWINDi_r2_v1.2.,2013-10-20 02:36:00,
2013-10-19 22:41:00,60.8,55.2,29.80,NE,49,12.0,17.0,82,0.00,,,0.00,HR-IXPWINDi_r2_v1.2.,2013-10-20 02:41:00,
2013-10-19 22:46:00,60.9,55.6,29.80,NE,53,11.0,18.0,83,0.00,,,0.00,HR-IXPWINDi_r2_v1.2.,2013-10-20 02:46:00,
2013-10-19 22:51:00,60.9,56.0,29.80,ENE,65,16.0,18.0,84,0.00,,,0.00,HR-IXPWINDi_r2_v1.2.,2013-10-20 02:51:00,
2013-10-19 22:57:00,60.8,55.5,29.80,ENE,62,16.0,17.0,83,0.00,,,0.00,HR-IXPWINDi_r2_v1.2.,2013-10-20 02:57:00,
2013-10-19 23:02:00,60.7,55.8,29.80,NE,56,15.0,19.0,84,0.00,,,0.00,HR-IXPWINDi_r2_v1.2.,2013-10-20 03:02:00,
2013-10-19 23:07:00,60.7,55.8,29.79,ENE,58,14.0,19.0,84,0.00,,,0.00,HR-IXPWINDi_r2_v1.2.,2013-10-20 03:07:00,
2013-10-19 23:13:00,60.7,55.4,29.79,ENE,67,13.0,18.0,83,0.00,,,0.00,HR-IXPWINDi_r2_v1.2.,2013-10-20 03:13:00,
2013-10-19 23:18:00,60.7,54.8,29.79,ENE,70,16.0,20.0,81,0.00,,,0.00,HR-IXPWINDi_r2_v1.2.,2013-10-20 03:18:00,
2013-10-19 23:23:00,60.6,55.0,29.79,ENE,68,17.0,20.0,82,0.00,,,0.00,HR-IXPWINDi_r2_v1.2.,2013-10-20 03:23:00,
2013-10-19 23:28:00,60.6,55.3,29.79,ENE,58,11.0,19.0,83,0.00,,,0.00,HR-IXPWINDi_r2_v1.2.,2013-10-20 03:28:00,
2013-10-19 23:34:00,60.6,55.3,29.79,ENE,58,16.0,19.0,83,0.00,,,0.00,HR-IXPWINDi_r2_v1.2.,2013-10-20 03:34:00,
2013-10-19 23:39:00,60.5,55.2,29.79,ENE,72,13.0,19.0,83,0.00,,,0.00,HR-IXPWINDi_r2_v1.2.,2013-10-20 03:39:00,
2013-10-19 23:44:00,60.5,55.2,29.79,ENE,78,9.0,19.0,83,0.00,,,0.00,HR-IXPWINDi_r2_v1.2.,2013-10-20 03:44:00,
2013-10-19 23:49:00,60.5,54.9,29.78,ENE,70,14.0,19.0,82,0.00,,,0.00,HR-IXPWINDi_r2_v1.2.,2013-10-20 03:49:00,
2013-10-19 23:54:00,60.5,54.2,29.78,ENE,64,12.0,18.0,80,0.00,,,0.00,HR-IXPWINDi_r2_v1.2.,2013-10-20 03:54:00,
2013-10-19 23:59:00,60.4,54.5,29.78,ENE,72,15.0,18.0,81,0.00,,,0.00,HR-IXPWINDi_r2_v1.2.,2013-10-20 03:59:00,